EHI
0 0 0 0 0 0 0 0 0 0 0 0 0 0 0 0 0 0 0 0 0 0 0 0 0 0 0 0 0 0 0 0 0 0 0 0 0 0
0 0 0 0 0 0 0 0 0 0 0 0 0 0 0 0 0 0 0 0 0 0 0 0 0 0 0 0 0 0 0 0 0 0 0 0 0 0
0 0 0 0 0 0 0 0 0 0 0 0 0 0 0 0 0 0 0 0 0 0 0 0 0 0 0 0 0 0 0 0 0 0 0 0 0 0
0 0 0 0 0 0 0 0 0 0 0 0 0 0 0 0 0 0 0 0 0 0 0 0 0 0 0 0 0 0 0 0 0 0 0 0 0 0
0 0 0 0 0 0 0 0 0 0 0 0 0 0 0 0 0 0 0 0 0 0 0 0 0 0 0 0 0 0 0 0 0 0 0 0 0 0
0 0 0 0 0 0 0 0 0 0 0 0 0 0 0 0 0 0 0 0 0 0 0 0 0 0 0 0 0 0 0 0 0 0 0 0 0 0
0 0 0 0 0 0 0 0 0 0 0 0 0 0 0 0 0 0 0 0 0 0 0 0 0 0 0 0 0 0 0 0 0 0 0 0 0 0
0 0 0 0 0 0 0 0 0 0 0 0 0 0 0 0 0 0 0 0 0 0 0 0 0 0 0 0 0 0 0 0 0 0 0 0 0 0
0 0 0 0 0 0 0 0 0 0 0 0 0 0 0 0 0 0 0 0 0 0 0 0 0 0 0 0 0 0 0 0 0 0 0 0 0 0
0 0 0 0 0 0 0 0 0 0 0 0 0 0 0 0 0 0 0 0 0 0 0 0 0 0 0 0 0 0 0 0 0 0 0 0 0 0
0 0 0 0 0 0 0 0 0 0 0 0 0 0 0 0 0 0 0 0 0 0 0 0 0 0 0 0 0 0 0 0 0 0 0 0 0 0
0 0 0 0 0 0 0 0 0 0 0 0 0 0 0 0 0 0 0 0 0 0 0 0 0 0 0 0 0 0 0 0 0 0 0 0 0 0
0 0 0 0 0 0 0 0 0 0 0 0 0 0 0 0 0 0 0 0 0 0 0 0 0 0 0 0 0 0 0 0 0 0 0 0 0 0
0 0 0 0 0 0 0 0 0 0 0 0 0 0 0 0 0 0 0 0 0 0 0 0 0 0 0 0 0 0 0 0 0 0 0 0 0 0
0 0 0 0 0 0 0 0 0 0 0 0 0 0 0 0 0 0 0 0 0 0 0 0 0 0 0 0 0 0 0 0 0 0 0 0 0 0
0 0 0 0 0 0 0 0 0 0 0 0 0 0 0 0 0 0 0 0 0 0 0 0 0 0 0 0 0 0 0 0 0 0 0 0 0 0
0 0 0 0 0 0 0 0 0 0 0 0 0 0 0 0 0 0 0 0 0 0 0 0 0 0 0 0 0 0 0 0 0 0 0 0 0 0
0 0 0 0 0 0 0 0 0 0 0 0 0 0 0 0 0 0 0 0 0 0 0 0 0 0 0 0 0 0 0 0 0 0 0 0 0 0
0 0 0 0 0 0 0 0 0 0 0 0 0 0 0 0 0 0 0 0 0 0 0 0 0 0 0 0 0 0 0 0 0 0 0 0 0 0
0 0 0 0 0 0 0 0 0 0 0 0 0 0 0 0 0 0 0 0 0 0 0 0 0 0 0 0 0 0 0 0 0 0 0 0 0 0
0 0 0 0 0 0 0 0 0 0 0 0 0 0 0 0 0 0 0 0 0 0 0 0 0 0 0 0 0 0 0 0 0 0 0 0 0 0
0 0 0 0 0 0 0 0 0 0 0 0 0 0 0 0 0 0 0 0 0 0 0 0 0 0 0 0 0 0 0 0 0 0 0 0 0 0
0 0 0 0 0 0 0 0 0 0 0 0 0 0 0 0 0 0 0 0 0 0 0 0 0 0 0 0 0 0 0 0 0 0 0 0 0 0
Wind_Speed
4 4 3 2 2 2 1 1 1 1 3 3 3 3 3 2 3 2 3 8 10 11 12 13 15 17 18 19 20 20 20 20 21 21 22 22 22 22
4 5 4 2 3 2 2 1 1 2 2 3 3 3 4 5 7 4 5 11 12 13 14 14 15 16 17 19 20 20 20 20 21 21 22 22 22 22
4 4 3 2 2 2 2 1 1 1 2 3 3 3 4 5 6 5 5 5 6 13 15 15 15 15 16 17 18 19 19 20 21 21 22 22 22 22
5 4 4 3 3 2 2 2 1 1 2 3 4 3 5 6 6 6 6 6 5 12 15 16 15 14 14 14 15 15 16 17 19 20 21 21 21 22
4 4 4 3 3 2 2 2 2 2 1 2 4 3 4 4 4 6 6 5 6 9 12 13 14 15 15 15 14 14 14 15 15 17 18 19 20 21
5 4 4 4 4 4 3 3 2 3 3 3 4 4 4 5 3 4 5 4 5 7 9 10 12 15 16 16 15 15 14 13 13 14 15 15 16 17
6 5 5 6 5 2 1 2 2 3 3 4 5 4 5 4 4 3 5 5 6 5 4 5 6 6 8 12 14 15 15 13 12 12 12 13 13 14
5 6 6 4 5 6 8 8 6 4 4 4 5 6 7 6 5 4 4 4 4 3 3 6 5 6 6 5 11 14 13 12 12 12 12 12 12 13
5 5 5 4 4 4 7 10 10 11 9 5 5 6 6 6 5 5 5 5 5 4 3 5 4 5 6 7 13 13 13 13 13 12 12 12 12 12
6 5 4 3 4 4 5 7 7 7 8 5 5 7 7 7 6 5 5 5 5 5 3 4 4 5 7 6 10 12 13 13 13 13 13 13 12 12
6 6 5 4 7 8 6 7 8 8 9 9 10 11 12 11 7 3 3 3 4 4 2 2 3 5 5 5 6 11 12 13 14 14 13 12 12 11
6 6 8 7 10 10 6 6 8 8 8 9 9 9 7 6 7 3 3 3 3 3 2 2 3 3 5 4 4 6 7 10 13 13 12 12 10 5
5 5 6 11 13 13 9 5 8 9 7 6 6 5 5 4 4 3 3 3 3 3 3 2 3 2 3 5 5 5 5 6 6 7 9 10 9 5
5 5 7 13 14 13 8 8 10 7 3 4 4 4 4 4 4 4 4 3 3 4 4 3 2 2 3 4 5 5 7 5 5 5 5 7 7 6
5 11 13 13 12 8 9 10 7 3 3 3 4 3 3 3 3 4 4 4 4 3 3 2 2 2 2 3 5 5 5 5 5 6 5 4 4 3
6 9 12 10 8 7 7 6 4 3 3 3 3 3 3 3 3 2 3 3 3 4 5 4 2 2 2 3 4 5 5 5 6 6 6 4 3 3
6 4 4 5 6 6 6 5 4 4 3 3 2 3 3 3 3 2 2 2 2 3 5 4 4 3 3 2 4 6 6 5 5 6 5 4 4 5
4 3 4 5 5 6 6 5 4 4 4 3 3 3 3 3 3 3 2 2 2 3 3 3 4 4 3 2 2 5 5 5 5 6 4 4 4 5
3 4 4 5 6 6 5 4 4 4 4 3 3 3 3 3 2 3 3 2 2 3 3 3 2 3 4 5 5 4 5 5 6 5 5 4 4 5
3 4 5 5 6 6 5 5 4 5 4 4 3 3 3 3 3 3 3 3 2 3 3 3 2 2 2 3 4 4 6 5 5 5 5 4 4 5
4 5 5 5 6 5 5 5 4 4 4 4 4 4 4 3 3 3 3 4 3 2 3 3 4 4 2 2 3 4 4 5 5 4 5 4 4 5
5 5 5 6 5 5 5 5 5 5 5 4 4 4 4 3 3 4 3 3 2 2 3 3 3 3 2 3 3 3 4 5 5 6 7 6 4 5
5 5 5 5 5 5 5 5 6 5 5 5 5 5 5 4 4 3 3 3 2 3 3 3 3 3 2 2 3 3 4 5 4 5 5 7 8 7
Wind_Direction
51 45 42 27 30 41 67 115 142 274 290 298 321 326 331 319 313 309 293 291 294 288 283 280 280 281 282 283 282 281 279 278 277 277 276 275 274 273
45 47 35 19 17 20 30 52 132 174 246 281 278 289 306 316 310 300 283 299 299 295 290 285 281 280 282 283 282 280 279 277 276 276 276 275 273 272
28 33 20 14 14 1 7 12 26 152 236 278 274 286 300 305 308 300 290 281 283 293 293 291 287 286 285 285 284 282 280 279 278 278 276 275 273 272
11 11 354 351 347 334 336 328 304 258 214 278 289 297 296 296 294 297 297 297 289 295 294 293 294 294 293 290 288 283 279 276 276 277 277 275 273 271
354 347 328 329 312 301 299 298 293 300 266 268 285 285 286 291 299 295 292 292 295 297 297 296 299 301 299 296 291 287 281 276 273 273 274 273 271 269
336 326 313 299 277 276 279 282 284 297 296 289 285 287 283 285 285 291 300 295 294 297 296 297 299 303 302 300 298 295 290 282 275 272 270 269 268 267
329 322 313 320 331 321 306 289 286 283 289 286 286 290 291 297 291 279 286 293 288 276 286 292 294 291 294 297 299 297 296 291 285 278 274 269 265 262
326 324 319 338 1 3 348 332 313 291 282 275 282 285 285 282 279 278 281 296 296 282 286 290 287 285 286 278 288 296 296 295 292 288 280 273 267 262
328 324 329 349 7 348 334 330 321 310 298 276 272 277 278 275 278 283 276 270 268 270 280 284 288 287 287 293 301 303 301 299 293 289 285 278 270 264
334 329 327 329 331 328 319 316 307 301 295 290 263 268 271 270 256 259 266 276 274 275 251 270 286 288 295 295 297 301 305 304 300 295 289 282 273 266
330 332 326 312 309 320 316 309 308 304 302 299 294 291 290 290 281 270 286 291 297 293 266 259 281 294 294 291 295 303 306 306 304 302 297 288 277 270
325 323 321 314 309 312 301 293 297 298 307 315 314 315 310 308 311 266 251 275 287 289 285 286 285 307 305 291 291 301 308 309 309 305 303 298 289 275
317 316 312 315 315 311 305 275 271 284 295 298 302 309 316 319 316 307 270 248 265 274 280 291 284 289 282 296 299 301 309 310 312 308 309 308 300 276
305 306 306 313 315 316 313 303 307 310 300 307 312 314 316 314 309 310 310 296 261 258 276 278 269 287 299 296 299 309 313 312 316 315 316 315 308 293
306 313 316 318 322 323 324 326 328 325 315 315 315 303 292 295 311 323 329 330 325 308 305 290 269 279 288 292 305 306 309 310 323 326 325 329 330 327
325 320 320 324 335 331 330 334 330 311 303 299 303 303 310 326 330 329 331 335 340 324 318 319 305 271 290 303 307 316 320 319 325 330 330 333 341 347
318 319 338 344 350 347 340 335 330 336 335 323 321 325 326 330 320 317 324 332 336 323 325 326 322 289 243 289 320 325 326 325 328 334 334 340 351 355
341 339 340 340 336 333 332 330 327 333 329 328 327 319 315 315 313 314 320 324 321 318 320 322 333 340 334 288 293 325 332 330 332 338 343 340 347 353
6 344 338 332 328 328 328 326 321 320 323 331 330 319 313 314 315 315 318 321 319 316 313 319 339 352 354 347 327 339 344 337 341 348 350 346 343 344
349 336 329 326 326 329 329 328 328 333 337 335 330 326 321 315 319 319 315 313 313 316 323 326 328 333 335 325 319 321 344 351 348 350 345 336 332 330
334 331 326 326 327 327 328 331 336 340 340 339 333 328 325 321 315 312 315 325 330 320 319 313 299 311 312 339 347 342 337 352 9 4 347 344 346 357
327 329 328 330 332 334 337 343 348 349 348 344 335 330 327 321 314 314 317 324 324 315 310 307 317 346 6 6 354 342 344 345 357 20 35 32 13 5
326 330 332 337 342 345 348 351 353 345 344 339 333 330 331 328 325 327 326 329 333 338 341 342 347 355 351 355 356 350 353 352 353 4 12 18 33 38